Regional Weather Roundup
Issued by NWS Memphis, TN

Current Version | Previous Version | Text Only | Print | Product List | Glossary On
Versions: 1 2 3 4 5 6 7 8 9 10 11 12 13 14 15 16 17 18 19 20 21 22 23 24 25 26 27 28 29 30 31 32 33 34 35 36 37 38 39 40 41 42 43 44 45 46 47 48 49 50
000
ASUS44 KMEG 240610
RWRMEG
MEMPHIS CWA HOURLY WEATHER ROUNDUP
NATIONAL WEATHER SERVICE MEMPHIS TN
100 AM CDT THU MAY 24 2018

...WEST TENNESSEE...

CITY           SKY/WX    TMP DP  RH WIND       PRES   REMARKS
MEMPHIS INTL   CLOUDY    73  71  93 CALM      30.08F
6HR MIN TEMP:  73; 6HR MAX TEMP:  80;

NWS MEMPHIS      N/A     72 N/A N/A MISG        N/A
JACKSON        FAIR      70  70 100 CALM      30.09S
6HR MIN TEMP:  70; 6HR MAX TEMP:  85;

COVINGTON      MOCLDY    73  72  94 NE3       30.08F
BOLIVAR        MOCLDY    72  70  94 CALM      30.09S
LEXINGTON      CLEAR     68  66  94 CALM      30.09S
SELMER         CLEAR     68  66  94 CALM      30.09S
DYERSBURG      FAIR      74  67  78 CALM        N/A
6HR MIN TEMP:  74; 6HR MAX TEMP:  85;

PARIS          CLEAR     70  66  88 CALM      30.10S
HUNTINGDON     PTCLDY    72  66  83 CALM      30.09S


...EASTERN ARKANSAS...

CITY           SKY/WX    TMP DP  RH WIND       PRES   REMARKS
JONESBORO      FAIR      72  71  97 CALM      30.07F
6HR MIN TEMP:  71; 6HR MAX TEMP:  74; 6HR PCP: TRACE;

WEST MEMPHIS   FAIR      74  71  91 W3        30.07F
6HR MIN TEMP:  72; 6HR MAX TEMP:  79;

BATESVILLE     FOG       67  67 100 CALM      30.11R VSB 1/4
6HR MIN TEMP:  67; 6HR MAX TEMP:  70; 6HR PCP:  0.01;

NEWPORT        FAIR      69  69 100 CALM      30.09F
6HR MIN TEMP:  69; 6HR MAX TEMP:  71; 6HR PCP:  0.03;

WALNUT RIDGE     N/A     71  69  93 NW3       30.08F
6HR MIN TEMP:  71; 6HR MAX TEMP:  73; 6HR PCP:  0.03;

BLYTHEVILLE    FAIR      76  67  73 E3        30.07F
6HR MIN TEMP:  75; 6HR MAX TEMP:  83;

SEARCY         FAIR      68  68 100 W3        30.10R
6HR MIN TEMP:  67; 6HR MAX TEMP:  73;

STUTTGART      FAIR      71  70  96 SW6       30.09R
6HR MIN TEMP:  71; 6HR MAX TEMP:  76;

PINE BLUFF     FAIR      71  68  90 SW3       30.08F
6HR MIN TEMP:  71; 6HR MAX TEMP:  76;

MONTICELLO     FAIR      73  71  93 VRB5      30.08F
6HR MIN TEMP:  72; 6HR MAX TEMP:  77;



...NORTH MISSISSIPPI...

CITY           SKY/WX    TMP DP  RH WIND       PRES   REMARKS
TUPELO         FAIR     N/A N/A N/A CALM      30.08F
BATESVILLE       N/A    N/A N/A N/A MISG        N/A
TUNICA           N/A     70  70 100 CALM      30.08F
CLARKSDALE     CLEAR     72  72 100 CALM      30.08S
CORINTH          N/A     73  70  88 CALM      30.08S
GREENWOOD      FAIR      70  69  97 CALM      30.08S
6HR MIN TEMP:  70; 6HR MAX TEMP:  72; 6HR PCP:  0.03;

COLUMBUS       FAIR      71  71 100 NW3       30.06F
6HR MIN TEMP:  71; 6HR MAX TEMP:  81;

STARKVILLE     FAIR      70  66  88 CALM      30.08F
GOLDEN TRIANGL FAIR      72  69  90 NW3       30.07F
6HR MIN TEMP:  72; 6HR MAX TEMP:  81;



...SOUTHEAST MISSOURI...

CITY           SKY/WX    TMP DP  RH WIND       PRES   REMARKS
KENNETT          N/A     73  70  88 CALM      30.06
MALDEN         FAIR      73  70  88 CALM      30.09F
WEST PLAINS    CLOUDY    67  65  93 N3        30.15R
6HR MIN TEMP:  66; 6HR MAX TEMP:  68; 6HR PCP:  0.02;

POPLAR BLUFF   FAIR      72  70  93 CALM      30.08F
6HR MIN TEMP:  72; 6HR MAX TEMP:  82;

CAPE GIRARDEAU FAIR      70  66  87 CALM      30.09S
6HR MIN TEMP:  70; 6HR MAX TEMP:  83;



...NORTHWEST ALABAMA...

CITY           SKY/WX    TMP DP  RH WIND       PRES   REMARKS
MUSCLE SHOALS  FAIR      74  69  85 CALM      30.09S
6HR MIN TEMP:  73; 6HR MAX TEMP:  87;



...MIDDLE TENNESSEE...

CITY           SKY/WX    TMP DP  RH WIND       PRES   REMARKS
NASHVILLE      MOCLDY    70  65  84 CALM      30.10S
6HR MIN TEMP:  69; 6HR MAX TEMP:  83;

CLARKSVILLE    FAIR      70  64  81 CALM      30.10S
6HR MIN TEMP:  70; 6HR MAX TEMP:  80;

DICKSON        PTCLDY    66  66 100 W7        30.11S
COLUMBIA       CLEAR     68  68 100 CALM      30.08F
LEWISBURG      PTCLDY    64  63  94 CALM      30.09F


...WESTERN KENTUCKY...

CITY           SKY/WX    TMP DP  RH WIND       PRES   REMARKS
PADUCAH        FAIR      69  67  93 CALM      30.09S
6HR MIN TEMP:  69; 6HR MAX TEMP:  83;

FORT CAMPBELL  FAIR      71  67  87 N3        30.09S
6HR MIN TEMP:  71; 6HR MAX TEMP:  81;



...CENTRAL ARKANSAS...

CITY           SKY/WX    TMP DP  RH WIND       PRES   REMARKS
LITTLE ROCK    CLOUDY    67  67 100 CALM      30.10R
6HR MIN TEMP:  67; 6HR MAX TEMP:  72;



SKY/WX REPORTED AS FAIR MEANS FEW OR NO CLOUDS BELOW
12 THOUSAND FEET.





USA.gov is the U.S. government's official web portal to all federal, state and local government web resources and services.